| time (UTC) | temp F | wind direction | speed MPH | gust MPH | rain 1hr in | rain 24hr in | rain mn in | humidity % | barometer mb |
| 20260510182511 | 69 | 198 | 4.0 | 6.0 | 0.00 | 0.13 | 0.00 | 65 | 1011.4 |
| 20260510182010 | 68 | 106 | 1.0 | 9.0 | 0.00 | 0.13 | 0.00 | 67 | 1011.4 |
| 20260510181533 | 68 | 163 | 2.0 | 11.0 | 0.00 | 0.13 | 0.00 | 68 | 1011.5 |
| 20260510181011 | 68 | 173 | 5.0 | 13.0 | 0.00 | 0.13 | 0.00 | 66 | 1011.5 |
| 20260510180511 | 68 | 182 | 5.0 | 15.0 | 0.00 | 0.13 | 0.00 | 65 | 1011.4 |
| 20260510180011 | 68 | 196 | 7.0 | 15.0 | 0.00 | 0.13 | 0.00 | 65 | 1011.4 |
| 20260510175506 | 69 | 135 | 6.0 | 12.0 | 0.00 | 0.13 | 0.00 | 65 | 1011.5 |
| 20260510175008 | 69 | 202 | 7.0 | 12.0 | 0.00 | 0.13 | 0.00 | 65 | 1011.4 |
| 20260510174518 | 68 | 223 | 4.0 | 18.0 | 0.00 | 0.13 | 0.00 | 65 | 1011.3 |
| 20260510174008 | 68 | 139 | 7.0 | 18.0 | 0.00 | 0.13 | 0.00 | 65 | 1011.2 |
| 20260510173508 | 68 | 98 | 3.0 | 19.0 | 0.00 | 0.14 | 0.00 | 65 | 1011.2 |
| 20260510173021 | 69 | 143 | 2.0 | 19.0 | 0.00 | 0.14 | 0.00 | 65 | 1011.5 |
| 20260510172511 | 70 | 179 | 8.0 | 17.0 | 0.00 | 0.14 | 0.00 | 64 | 1011.4 |
| 20260510172009 | 71 | 159 | 5.0 | 14.0 | 0.00 | 0.14 | 0.00 | 63 | 1011.5 |
| 20260510171525 | 71 | 153 | 7.0 | 14.0 | 0.00 | 0.14 | 0.00 | 63 | 1011.5 |
| 20260510171008 | 70 | 200 | 4.0 | 13.0 | 0.00 | 0.15 | 0.00 | 62 | 1011.5 |
| 20260510170511 | 71 | 173 | 5.0 | 12.0 | 0.00 | 0.15 | 0.00 | 62 | 1011.7 |
| 20260510170028 | 69 | 204 | 7.0 | 12.0 | 0.00 | 0.15 | 0.00 | 61 | 1011.7 |
| 20260510165508 | 69 | 235 | 4.0 | 15.0 | 0.00 | 0.15 | 0.00 | 65 | 1011.8 |
| 20260510165011 | 69 | 159 | 9.0 | 14.0 | 0.00 | 0.15 | 0.00 | 66 | 1011.8 |
| 20260510164518 | 68 | 211 | 6.0 | 10.0 | 0.00 | 0.16 | 0.00 | 68 | 1011.9 |
| 20260510164008 | 68 | 139 | 5.0 | 10.0 | 0.00 | 0.16 | 0.00 | 65 | 1012.0 |
| 20260510163507 | 69 | 193 | 5.0 | 9.0 | 0.00 | 0.16 | 0.00 | 65 | 1012.0 |
| 20260510163019 | 69 | 211 | 6.0 | 16.0 | 0.00 | 0.16 | 0.00 | 65 | 1012.1 |
| 20260510162508 | 68 | 146 | 7.0 | 16.0 | 0.00 | 0.16 | 0.00 | 65 | 1012.1 |
| 20260510162008 | 68 | 212 | 9.0 | 13.0 | 0.00 | 0.16 | 0.00 | 70 | 1012.2 |
| 20260510161524 | 67 | 199 | 5.0 | 13.0 | 0.00 | 0.17 | 0.00 | 70 | 1012.1 |
| 20260510161013 | 67 | 207 | 6.0 | 13.0 | 0.00 | 0.17 | 0.00 | 67 | 1012.2 |
| 20260510160511 | 67 | 192 | 6.0 | 14.0 | 0.00 | 0.17 | 0.00 | 70 | 1012.2 |
| 20260510160028 | 66 | 167 | 9.0 | 15.0 | 0.00 | 0.17 | 0.00 | 70 | 1012.2 |
| 20260510155511 | 66 | 168 | 8.0 | 15.0 | 0.00 | 0.17 | 0.00 | 69 | 1012.3 |
| 20260510155011 | 65 | 142 | 3.0 | 12.0 | 0.00 | 0.17 | 0.00 | 74 | 1012.3 |
| 20260510154543 | 64 | 211 | 5.0 | 12.0 | 0.00 | 0.17 | 0.00 | 73 | 1012.5 |
| 20260510154008 | 64 | 219 | 5.0 | 11.0 | 0.00 | 0.17 | 0.00 | 72 | 1012.5 |
| 20260510153510 | 65 | 230 | 5.0 | 12.0 | 0.00 | 0.18 | 0.00 | 72 | 1012.5 |
| 20260510152511 | 65 | 236 | 3.0 | 9.0 | 0.00 | 0.18 | 0.00 | 72 | 1012.6 |
| 20260510152012 | 64 | 238 | 6.0 | 13.0 | 0.00 | 0.18 | 0.00 | 72 | 1012.6 |
| 20260510151520 | 64 | 234 | 4.0 | 13.0 | 0.00 | 0.18 | 0.00 | 73 | 1012.7 |
| 20260510151008 | 63 | 176 | 3.0 | 11.0 | 0.00 | 0.18 | 0.00 | 76 | 1012.7 |
| 20260510150511 | 63 | 195 | 6.0 | 11.0 | 0.00 | 0.18 | 0.00 | 75 | 1012.6 |
| 20260510150024 | 63 | 157 | 4.0 | 11.0 | 0.00 | 0.18 | 0.00 | 75 | 1012.5 |
| 20260510145507 | 62 | 173 | 3.0 | 8.0 | 0.00 | 0.18 | 0.00 | 78 | 1012.5 |
| 20260510145010 | 62 | 173 | 3.0 | 12.0 | 0.00 | 0.18 | 0.00 | 79 | 1012.6 |
| 20260510144530 | 60 | 175 | 8.0 | 12.0 | 0.00 | 0.18 | 0.00 | 79 | 1012.7 |
| 20260510144013 | 60 | 228 | 5.0 | 10.0 | 0.00 | 0.19 | 0.00 | 79 | 1012.7 |
| 20260510143513 | 60 | 221 | 5.0 | 12.0 | 0.00 | 0.19 | 0.00 | 80 | 1012.7 |
| 20260510143017 | 60 | 224 | 7.0 | 11.0 | 0.00 | 0.19 | 0.00 | 80 | 1012.8 |
| 20260510142505 | 60 | 211 | 3.0 | 10.0 | 0.00 | 0.19 | 0.00 | 81 | 1012.8 |
| 20260510142010 | 59 | 187 | 5.0 | 10.0 | 0.00 | 0.19 | 0.00 | 83 | 1012.8 |
| 20260510141518 | 58 | 206 | 6.0 | 9.0 | 0.00 | 0.19 | 0.00 | 81 | 1012.8 |
| 20260510141012 | 59 | 232 | 4.0 | 10.0 | 0.00 | 0.19 | 0.00 | 82 | 1012.8 |
| 20260510140509 | 59 | 244 | 5.0 | 10.0 | 0.00 | 0.19 | 0.00 | 83 | 1012.9 |
| 20260510140024 | 58 | 174 | 5.0 | 8.0 | 0.00 | 0.19 | 0.00 | 82 | 1012.9 |
| 20260510135510 | 58 | 167 | 5.0 | 8.0 | 0.00 | 0.19 | 0.00 | 83 | 1012.9 |
| 20260510135010 | 58 | 87 | 2.0 | 7.0 | 0.00 | 0.19 | 0.00 | 84 | 1012.8 |
| 20260510134505 | 57 | 196 | 4.0 | 7.0 | 0.00 | 0.20 | 0.00 | 85 | 1012.9 |
| 20260510134003 | 56 | 196 | 3.0 | 7.0 | 0.00 | 0.20 | 0.00 | 87 | 1013.0 |
| 20260510133504 | 56 | 206 | 2.0 | 7.0 | 0.00 | 0.20 | 0.00 | 87 | 1013.0 |
| 20260510133005 | 55 | 229 | 4.0 | 8.0 | 0.00 | 0.20 | 0.00 | 87 | 1013.1 |
| 20260510132506 | 55 | 150 | 3.0 | 8.0 | 0.00 | 0.20 | 0.00 | 89 | 1013.0 |
| 20260510132003 | 55 | 186 | 5.0 | 8.0 | 0.00 | 0.20 | 0.00 | 88 | 1013.0 |
| 20260510131519 | 55 | 225 | 2.0 | 6.0 | 0.00 | 0.20 | 0.00 | 89 | 1012.9 |
| 20260510131004 | 55 | 194 | 3.0 | 6.0 | 0.00 | 0.21 | 0.00 | 89 | 1012.9 |
| 20260510130505 | 54 | 174 | 2.0 | 5.0 | 0.00 | 0.21 | 0.00 | 89 | 1012.9 |
| 20260510130004 | 54 | 158 | 3.0 | 6.0 | 0.00 | 0.21 | 0.00 | 89 | 1012.9 |
| 20260510125505 | 54 | 119 | 2.0 | 6.0 | 0.00 | 0.22 | 0.00 | 89 | 1012.8 |
| 20260510125005 | 54 | 181 | 2.0 | 6.0 | 0.00 | 0.22 | 0.00 | 89 | 1012.8 |
| 20260510124506 | 54 | 205 | 2.0 | 6.0 | 0.00 | 0.22 | 0.00 | 90 | 1012.7 |
| 20260510124006 | 54 | 163 | 3.0 | 6.0 | 0.00 | 0.22 | 0.00 | 91 | 1012.7 |
| 20260510123502 | 54 | 206 | 1.0 | 5.0 | 0.00 | 0.23 | 0.00 | 92 | 1012.7 |
| 20260510123008 | 54 | 225 | 3.0 | 5.0 | 0.00 | 0.23 | 0.00 | 91 | 1012.7 |
| 20260510122506 | 54 | 164 | 1.0 | 5.0 | 0.00 | 0.23 | 0.00 | 92 | 1012.6 |
| 20260510122003 | 54 | 160 | 2.0 | 5.0 | 0.00 | 0.23 | 0.00 | 92 | 1012.7 |
| 20260510121508 | 53 | 205 | 3.0 | 5.0 | 0.00 | 0.23 | 0.00 | 93 | 1012.7 |
| 20260510120509 | 53 | 227 | 3.0 | 5.0 | 0.00 | 0.24 | 0.00 | 92 | 1012.7 |
| 20260510120010 | 53 | 229 | 0.0 | 3.0 | 0.00 | 0.24 | 0.00 | 93 | 1012.7 |
| 20260510115503 | 53 | 173 | 0.0 | 2.0 | 0.00 | 0.24 | 0.00 | 93 | 1012.7 |
| 20260510115007 | 53 | 140 | 0.0 | 3.0 | 0.00 | 0.24 | 0.00 | 94 | 1012.7 |
| 20260510114505 | 53 | 140 | 1.0 | 3.0 | 0.00 | 0.24 | 0.00 | 94 | 1012.7 |
| 20260510114007 | 53 | 200 | 2.0 | 3.0 | 0.00 | 0.24 | 0.00 | 94 | 1012.7 |
| 20260510113508 | 53 | 202 | 1.0 | 3.0 | 0.00 | 0.24 | 0.00 | 94 | 1012.8 |
| 20260510113013 | 53 | 158 | 2.0 | 3.0 | 0.00 | 0.24 | 0.00 | 94 | 1012.7 |
| 20260510112506 | 53 | 200 | 0.0 | 3.0 | 0.00 | 0.24 | 0.00 | 94 | 1012.7 |
| 20260510112007 | 53 | 200 | 1.0 | 3.0 | 0.00 | 0.24 | 0.00 | 95 | 1012.7 |
| 20260510111509 | 52 | 184 | 1.0 | 3.0 | 0.00 | 0.24 | 0.00 | 95 | 1012.5 |
| 20260510111004 | 52 | 201 | 0.0 | 3.0 | 0.00 | 0.24 | 0.00 | 95 | 1012.4 |
| 20260510110507 | 52 | 209 | 1.0 | 3.0 | 0.00 | 0.24 | 0.00 | 95 | 1012.5 |
| 20260510110008 | 52 | 188 | 1.0 | 3.0 | 0.00 | 0.24 | 0.00 | 95 | 1012.5 |
| 20260510105507 | 52 | 221 | 2.0 | 8.0 | 0.00 | 0.24 | 0.00 | 95 | 1012.4 |
| 20260510104508 | 52 | 205 | 2.0 | 3.0 | 0.00 | 0.25 | 0.00 | 95 | 1012.3 |
| 20260510104006 | 52 | 219 | 1.0 | 3.0 | 0.00 | 0.25 | 0.00 | 95 | 1012.3 |
| 20260510103502 | 52 | 181 | 0.0 | 4.0 | 0.00 | 0.26 | 0.00 | 96 | 1012.1 |
| 20260510103008 | 51 | 207 | 1.0 | 5.0 | 0.00 | 0.26 | 0.00 | 95 | 1012.1 |
| 20260510102506 | 51 | 162 | 1.0 | 5.0 | 0.00 | 0.26 | 0.00 | 95 | 1011.9 |
| 20260510102010 | 51 | 224 | 2.0 | 6.0 | 0.00 | 0.27 | 0.00 | 96 | 1012.0 |
| 20260510101511 | 51 | 219 | 2.0 | 6.0 | 0.00 | 0.27 | 0.00 | 96 | 1011.8 |
| 20260510101003 | 51 | 198 | 4.0 | 6.0 | 0.00 | 0.28 | 0.00 | 96 | 1011.8 |
| 20260510100507 | 51 | 167 | 3.0 | 6.0 | 0.00 | 0.28 | 0.00 | 96 | 1011.7 |
| 20260510100011 | 51 | 219 | 3.0 | 5.0 | 0.00 | 0.28 | 0.00 | 96 | 1011.7 |
| 20260510095510 | 51 | 213 | 2.0 | 8.0 | 0.00 | 0.29 | 0.00 | 96 | 1011.3 |
| 20260510095013 | 51 | 171 | 3.0 | 8.0 | 0.00 | 0.29 | 0.00 | 96 | 1011.0 |
| 20260510094515 | 51 | 166 | 3.0 | 7.0 | 0.00 | 0.30 | 0.00 | 96 | 1011.0 |
| 20260510094005 | 51 | 188 | 3.0 | 8.0 | 0.00 | 0.30 | 0.00 | 96 | 1011.1 |
| 20260510093506 | 51 | 180 | 4.0 | 8.0 | 0.00 | 0.30 | 0.00 | 96 | 1011.0 |
| 20260510093011 | 51 | 187 | 3.0 | 8.0 | 0.00 | 0.31 | 0.00 | 96 | 1011.1 |
| 20260510092505 | 51 | 188 | 3.0 | 8.0 | 0.00 | 0.31 | 0.00 | 96 | 1011.3 |
| 20260510092002 | 51 | 190 | 4.0 | 8.0 | 0.00 | 0.32 | 0.00 | 96 | 1011.2 |
| 20260510091510 | 50 | 196 | 3.0 | 6.0 | 0.00 | 0.32 | 0.00 | 96 | 1011.3 |
| 20260510090506 | 50 | 181 | 2.0 | 4.0 | 0.00 | 0.33 | 0.00 | 96 | 1011.2 |
| 20260510090016 | 50 | 205 | 2.0 | 4.0 | 0.00 | 0.33 | 0.00 | 96 | 1011.2 |
| 20260510085506 | 50 | 147 | 0.0 | 4.0 | 0.00 | 0.34 | 0.00 | 96 | 1011.3 |
| 20260510085005 | 50 | 190 | 2.0 | 4.0 | 0.00 | 0.34 | 0.00 | 96 | 1011.4 |
| 20260510084517 | 50 | 221 | 2.0 | 4.0 | 0.00 | 0.34 | 0.00 | 96 | 1011.5 |
| 20260510083508 | 50 | 159 | 1.0 | 3.0 | 0.00 | 0.34 | 0.00 | 96 | 1011.6 |
| 20260510083012 | 51 | 179 | 1.0 | 3.0 | 0.00 | 0.34 | 0.00 | 96 | 1011.7 |
| 20260510082007 | 50 | 146 | 1.0 | 4.0 | 0.00 | 0.34 | 0.00 | 96 | 1011.7 |
| 20260510081509 | 50 | 196 | 2.0 | 3.0 | 0.00 | 0.34 | 0.00 | 96 | 1011.8 |
| 20260510081004 | 50 | 187 | 1.0 | 3.0 | 0.00 | 0.34 | 0.00 | 96 | 1011.7 |
| 20260510080507 | 50 | 202 | 2.0 | 2.0 | 0.00 | 0.34 | 0.00 | 96 | 1011.8 |
| 20260510080014 | 50 | 227 | 0.0 | 2.0 | 0.00 | 0.34 | 0.00 | 96 | 1011.8 |
| 20260510075007 | 50 | 256 | 0.0 | 0.0 | 0.00 | 0.34 | 0.00 | 96 | 1011.8 |
| 20260510074516 | 50 | 279 | 0.0 | 2.0 | 0.00 | 0.34 | 0.00 | 96 | 1011.7 |
| 20260510074007 | 50 | 279 | 1.0 | 2.0 | 0.00 | 0.34 | 0.00 | 96 | 1011.7 |
| 20260510073507 | 50 | 255 | 0.0 | 2.0 | 0.00 | 0.34 | 0.00 | 96 | 1011.8 |
| 20260510073017 | 50 | 237 | 1.0 | 2.0 | 0.00 | 0.34 | 0.00 | 96 | 1011.6 |
| 20260510072507 | 50 | 200 | 1.0 | 2.0 | 0.00 | 0.34 | 0.00 | 96 | 1011.6 |
| 20260510072010 | 49 | 150 | 0.0 | 2.0 | 0.00 | 0.34 | 0.00 | 96 | 1011.5 |
| 20260510071515 | 49 | 181 | 0.0 | 2.0 | 0.00 | 0.34 | 0.00 | 96 | 1011.5 |
| 20260510071007 | 49 | 111 | 0.0 | 2.0 | 0.00 | 0.34 | 0.00 | 96 | 1011.4 |
| 20260510065504 | 48 | 153 | 0.0 | 2.0 | 0.00 | 0.34 | 0.00 | 96 | 1011.4 |
| 20260510065009 | 47 | 149 | 0.0 | 0.0 | 0.00 | 0.34 | 0.00 | 96 | 1011.5 |
| 20260510064536 | 47 | 167 | 0.0 | 0.0 | 0.00 | 0.34 | 0.00 | 96 | 1011.4 |
| 20260510064008 | 47 | 167 | 0.0 | 0.0 | 0.00 | 0.34 | 0.00 | 96 | 1011.4 |
| 20260510063507 | 47 | 167 | 0.0 | 0.0 | 0.00 | 0.34 | 0.00 | 96 | 1011.6 |
| 20260510063022 | 47 | 167 | 0.0 | 2.0 | 0.00 | 0.34 | 0.00 | 96 | 1011.4 |
| 20260510062510 | 48 | 182 | 0.0 | 3.0 | 0.00 | 0.34 | 0.00 | 96 | 1011.5 |
| 20260510062010 | 47 | 162 | 2.0 | 3.0 | 0.00 | 0.34 | 0.00 | 96 | 1011.4 |
| 20260510061516 | 47 | 194 | 0.0 | 0.0 | 0.00 | 0.34 | 0.00 | 96 | 1011.3 |
| 20260510061008 | 47 | 184 | 0.0 | 0.0 | 0.00 | 0.34 | 0.00 | 96 | 1011.3 |
| 20260510060508 | 47 | 184 | 0.0 | 0.0 | 0.00 | 0.34 | 0.00 | 96 | 1011.4 |
| 20260510060019 | 47 | 184 | 0.0 | 0.0 | 0.00 | 0.34 | 0.00 | 96 | 1011.3 |
| 20260510055507 | 47 | 184 | 0.0 | 0.0 | 0.00 | 0.34 | 0.00 | 96 | 1011.2 |
| 20260510055004 | 46 | 200 | 0.0 | 0.0 | 0.00 | 0.34 | 0.00 | 96 | 1011.1 |
| 20260510054512 | 46 | 245 | 0.0 | 0.0 | 0.00 | 0.34 | 0.00 | 96 | 1011.1 |
| 20260510054007 | 46 | 245 | 0.0 | 0.0 | 0.00 | 0.34 | 0.00 | 95 | 1011.1 |
| 20260510053508 | 47 | 245 | 0.0 | 0.0 | 0.00 | 0.34 | 0.00 | 95 | 1011.3 |
| 20260510053036 | 47 | 245 | 0.0 | 0.0 | 0.00 | 0.34 | 0.00 | 95 | 1011.6 |
| 20260510052510 | 47 | 245 | 0.0 | 2.0 | 0.00 | 0.34 | 0.00 | 95 | 1011.5 |
| 20260510052010 | 48 | 245 | 0.0 | 2.0 | 0.00 | 0.34 | 0.00 | 96 | 1011.6 |
| 20260510051523 | 48 | 246 | 1.0 | 2.0 | 0.00 | 0.34 | 0.00 | 96 | 1011.5 |
| 20260510051014 | 48 | 254 | 0.0 | 2.0 | 0.00 | 0.34 | 0.00 | 96 | 1011.5 |
| 20260510050020 | 48 | 243 | 0.0 | 2.0 | 0.00 | 0.34 | 0.00 | 96 | 1011.3 |
| 20260510045508 | 48 | 261 | 1.0 | 2.0 | 0.00 | 0.34 | 0.00 | 95 | 1011.3 |
| 20260510044520 | 48 | 261 | 1.0 | 1.0 | 0.00 | 0.34 | 0.00 | 95 | 1011.3 |
| 20260510044008 | 49 | 169 | 0.0 | 3.0 | 0.00 | 0.34 | 0.00 | 95 | 1011.1 |
| 20260510043505 | 49 | 169 | 0.0 | 3.0 | 0.00 | 0.34 | 0.00 | 96 | 1011.2 |
| 20260510043016 | 49 | 202 | 2.0 | 3.0 | 0.00 | 0.34 | 0.00 | 96 | 1011.5 |
| 20260510042507 | 49 | 209 | 1.0 | 3.0 | 0.00 | 0.34 | 0.00 | 96 | 1011.5 |
| 20260510042007 | 49 | 227 | 2.0 | 3.0 | 0.00 | 0.34 | 0.00 | 96 | 1011.4 |
| 20260510041521 | 49 | 198 | 1.0 | 2.0 | 0.00 | 0.34 | 0.00 | 96 | 1011.4 |
| 20260510041010 | 50 | 192 | 1.0 | 2.0 | 0.00 | 0.34 | 0.00 | 96 | 1011.4 |
| 20260510040507 | 49 | 173 | 0.0 | 0.0 | 0.00 | 0.34 | 0.00 | 96 | 1011.5 |
| 20260510040023 | 49 | 192 | 0.0 | 0.0 | 0.00 | 0.34 | 0.00 | 96 | 1011.6 |
| 20260510035506 | 49 | 101 | 0.0 | 0.0 | 0.00 | 0.34 | 0.34 | 96 | 1011.6 |
| 20260510035005 | 50 | 273 | 0.0 | 0.0 | 0.00 | 0.34 | 0.34 | 96 | 1011.5 |
| 20260510034507 | 50 | 270 | 0.0 | 0.0 | 0.00 | 0.34 | 0.34 | 96 | 1011.6 |
| 20260510034003 | 50 | 270 | 0.0 | 0.0 | 0.00 | 0.34 | 0.34 | 96 | 1011.7 |
| 20260510033507 | 50 | 270 | 0.0 | 0.0 | 0.00 | 0.34 | 0.34 | 96 | 1011.7 |
| 20260510033014 | 50 | 270 | 0.0 | 0.0 | 0.00 | 0.34 | 0.34 | 96 | 1011.7 |
| 20260510032507 | 50 | 270 | 0.0 | 0.0 | 0.00 | 0.34 | 0.34 | 96 | 1011.7 |
| 20260510032012 | 49 | 270 | 0.0 | 0.0 | 0.00 | 0.34 | 0.34 | 96 | 1011.6 |
| 20260510031524 | 49 | 270 | 0.0 | 0.0 | 0.00 | 0.34 | 0.34 | 96 | 1011.6 |
| 20260510031007 | 49 | 297 | 0.0 | 0.0 | 0.00 | 0.34 | 0.34 | 96 | 1011.6 |
| 20260510030517 | 49 | 302 | 0.0 | 0.0 | 0.00 | 0.34 | 0.34 | 96 | 1011.7 |
| 20260510030024 | 49 | 302 | 0.0 | 0.0 | 0.00 | 0.34 | 0.34 | 96 | 1011.5 |
| 20260510025507 | 49 | 302 | 0.0 | 0.0 | 0.00 | 0.34 | 0.34 | 96 | 1011.5 |
| 20260510025010 | 49 | 302 | 0.0 | 0.0 | 0.00 | 0.34 | 0.34 | 95 | 1011.6 |
| 20260510024519 | 49 | 302 | 0.0 | 0.0 | 0.00 | 0.34 | 0.34 | 95 | 1011.6 |
| 20260510024003 | 49 | 302 | 0.0 | 0.0 | 0.00 | 0.34 | 0.34 | 95 | 1011.6 |
| 20260510023504 | 49 | 302 | 0.0 | 0.0 | 0.00 | 0.34 | 0.34 | 95 | 1011.6 |
| 20260510023009 | 49 | 302 | 0.0 | 0.0 | 0.00 | 0.34 | 0.34 | 96 | 1011.3 |
| 20260510022509 | 49 | 302 | 0.0 | 0.0 | 0.00 | 0.34 | 0.34 | 95 | 1011.5 |
| 20260510022009 | 49 | 5 | 0.0 | 0.0 | 0.00 | 0.34 | 0.34 | 95 | 1011.4 |
| 20260510021524 | 49 | 5 | 0.0 | 0.0 | 0.00 | 0.34 | 0.34 | 95 | 1011.5 |
| 20260510021009 | 49 | 5 | 0.0 | 0.0 | 0.00 | 0.34 | 0.34 | 95 | 1011.6 |
| 20260510020510 | 49 | 5 | 0.0 | 0.0 | 0.00 | 0.34 | 0.34 | 95 | 1011.9 |
| 20260510020027 | 49 | 5 | 0.0 | 0.0 | 0.00 | 0.34 | 0.34 | 95 | 1012.1 |
| 20260510015507 | 49 | 5 | 0.0 | 0.0 | 0.00 | 0.34 | 0.34 | 95 | 1012.1 |
| 20260510015009 | 49 | 5 | 0.0 | 0.0 | 0.00 | 0.34 | 0.34 | 95 | 1012.2 |
| 20260510014522 | 49 | 5 | 0.0 | 0.0 | 0.00 | 0.34 | 0.34 | 95 | 1012.2 |
| 20260510014009 | 49 | 5 | 0.0 | 0.0 | 0.00 | 0.34 | 0.34 | 95 | 1012.1 |
| 20260510013510 | 49 | 306 | 0.0 | 0.0 | 0.00 | 0.34 | 0.34 | 95 | 1012.1 |
| 20260510013023 | 49 | 306 | 0.0 | 0.0 | 0.00 | 0.34 | 0.34 | 95 | 1012.1 |
| 20260510012504 | 49 | 306 | 0.0 | 0.0 | 0.00 | 0.34 | 0.34 | 95 | 1012.1 |
| 20260510012007 | 49 | 196 | 0.0 | 0.0 | 0.00 | 0.34 | 0.34 | 95 | 1011.9 |
| 20260510011510 | 49 | 196 | 0.0 | 0.0 | 0.00 | 0.34 | 0.34 | 95 | 1011.8 |
| 20260510011007 | 49 | 196 | 0.0 | 0.0 | 0.00 | 0.34 | 0.34 | 95 | 1011.6 |
| 20260510010507 | 49 | 196 | 0.0 | 0.0 | 0.00 | 0.34 | 0.34 | 95 | 1011.5 |
| 20260510010017 | 49 | 196 | 0.0 | 0.0 | 0.00 | 0.34 | 0.34 | 95 | 1011.4 |
| 20260510005508 | 49 | 196 | 0.0 | 0.0 | 0.00 | 0.34 | 0.34 | 95 | 1011.3 |
| 20260510005010 | 49 | 69 | 0.0 | 0.0 | 0.00 | 0.34 | 0.34 | 95 | 1011.3 |
| 20260510004520 | 49 | 69 | 0.0 | 0.0 | 0.00 | 0.34 | 0.34 | 95 | 1011.3 |
| 20260510004006 | 49 | 69 | 0.0 | 0.0 | 0.00 | 0.34 | 0.34 | 95 | 1011.3 |
| 20260510003510 | 49 | 69 | 0.0 | 0.0 | 0.00 | 0.34 | 0.34 | 95 | 1011.2 |
| 20260510003028 | 49 | 69 | 0.0 | 0.0 | 0.00 | 0.34 | 0.34 | 95 | 1011.2 |
| 20260510002509 | 49 | 69 | 0.0 | 0.0 | 0.00 | 0.34 | 0.34 | 95 | 1011.2 |
| 20260510002008 | 49 | 69 | 0.0 | 0.0 | 0.00 | 0.34 | 0.34 | 95 | 1011.2 |
| 20260510001512 | 49 | 69 | 0.0 | 0.0 | 0.00 | 0.34 | 0.34 | 95 | 1011.2 |
| 20260510001007 | 49 | 69 | 0.0 | 0.0 | 0.01 | 0.34 | 0.34 | 95 | 1011.2 |
| 20260510000506 | 49 | 69 | 0.0 | 0.0 | 0.01 | 0.34 | 0.34 | 95 | 1011.1 |
| 20260510000018 | 49 | 69 | 0.0 | 0.0 | 0.01 | 0.34 | 0.34 | 95 | 1011.2 |
| 20260509235509 | 49 | 69 | 0.0 | 0.0 | 0.01 | 0.34 | 0.34 | 95 | 1011.2 |
| 20260509235009 | 49 | 69 | 0.0 | 0.0 | 0.01 | 0.34 | 0.34 | 95 | 1011.2 |
| 20260509234519 | 49 | 69 | 0.0 | 0.0 | 0.01 | 0.34 | 0.34 | 95 | 1011.2 |
| 20260509234009 | 49 | 329 | 0.0 | 2.0 | 0.01 | 0.34 | 0.34 | 95 | 1011.4 |
| 20260509233506 | 49 | 329 | 0.0 | 2.0 | 0.01 | 0.34 | 0.34 | 95 | 1011.4 |
| 20260509233022 | 49 | 271 | 0.0 | 0.0 | 0.01 | 0.34 | 0.34 | 95 | 1011.5 |
| 20260509232507 | 49 | 271 | 0.0 | 0.0 | 0.01 | 0.34 | 0.34 | 95 | 1011.4 |
| 20260509232010 | 49 | 271 | 0.0 | 0.0 | 0.02 | 0.34 | 0.34 | 95 | 1011.2 |
| 20260509231524 | 49 | 271 | 0.0 | 0.0 | 0.02 | 0.34 | 0.34 | 95 | 1011.2 |
| 20260509231007 | 49 | 271 | 0.0 | 0.0 | 0.01 | 0.33 | 0.33 | 95 | 1011.2 |
| 20260509230504 | 49 | 271 | 0.0 | 0.0 | 0.01 | 0.33 | 0.33 | 95 | 1011.2 |
| 20260509230012 | 49 | 271 | 0.0 | 0.0 | 0.01 | 0.33 | 0.33 | 95 | 1011.2 |
| 20260509225503 | 49 | 271 | 0.0 | 0.0 | 0.01 | 0.33 | 0.33 | 95 | 1011.2 |
| 20260509225009 | 49 | 271 | 0.0 | 2.0 | 0.01 | 0.33 | 0.33 | 95 | 1011.2 |
| 20260509224516 | 49 | 269 | 0.0 | 2.0 | 0.01 | 0.33 | 0.33 | 95 | 1011.1 |
| 20260509224010 | 49 | 88 | 0.0 | 0.0 | 0.02 | 0.33 | 0.33 | 95 | 1011.0 |
| 20260509223509 | 49 | 104 | 0.0 | 0.0 | 0.02 | 0.33 | 0.33 | 95 | 1011.1 |
| 20260509223022 | 49 | 104 | 0.0 | 0.0 | 0.03 | 0.33 | 0.33 | 95 | 1011.0 |
| 20260509222507 | 49 | 229 | 0.0 | 0.0 | 0.03 | 0.33 | 0.33 | 95 | 1011.0 |
| 20260509222012 | 49 | 230 | 0.0 | 0.0 | 0.02 | 0.32 | 0.32 | 95 | 1011.3 |
| 20260509221526 | 49 | 225 | 0.0 | 0.0 | 0.03 | 0.32 | 0.32 | 95 | 1011.3 |
| 20260509221009 | 49 | 175 | 0.0 | 0.0 | 0.03 | 0.32 | 0.32 | 95 | 1011.2 |
| 20260509220507 | 49 | 49 | 0.0 | 0.0 | 0.03 | 0.32 | 0.32 | 95 | 1011.2 |
| 20260509220035 | 49 | 49 | 0.0 | 0.0 | 0.03 | 0.32 | 0.32 | 94 | 1011.3 |
| 20260509215511 | 49 | 49 | 0.0 | 0.0 | 0.03 | 0.32 | 0.32 | 94 | 1011.2 |
| 20260509215004 | 49 | 53 | 0.0 | 0.0 | 0.04 | 0.32 | 0.32 | 94 | 1011.1 |
| 20260509214513 | 48 | 53 | 0.0 | 0.0 | 0.04 | 0.32 | 0.32 | 94 | 1011.1 |
| 20260509214007 | 48 | 53 | 0.0 | 0.0 | 0.04 | 0.31 | 0.31 | 94 | 1011.1 |
| 20260509213508 | 48 | 53 | 0.0 | 0.0 | 0.04 | 0.31 | 0.31 | 94 | 1011.1 |
| 20260509213020 | 48 | 53 | 0.0 | 1.0 | 0.03 | 0.30 | 0.30 | 94 | 1011.2 |
| 20260509212511 | 48 | 53 | 0.0 | 1.0 | 0.04 | 0.30 | 0.30 | 94 | 1011.3 |
| 20260509212012 | 48 | 53 | 0.0 | 0.0 | 0.04 | 0.30 | 0.30 | 94 | 1011.4 |
| 20260509211524 | 48 | 53 | 0.0 | 0.0 | 0.03 | 0.29 | 0.29 | 94 | 1011.4 |
| 20260509211010 | 48 | 53 | 0.0 | 0.0 | 0.03 | 0.29 | 0.29 | 94 | 1011.6 |
| 20260509210509 | 48 | 53 | 0.0 | 0.0 | 0.03 | 0.29 | 0.29 | 94 | 1011.6 |
| 20260509210028 | 48 | 97 | 0.0 | 0.0 | 0.03 | 0.29 | 0.29 | 94 | 1011.6 |
| 20260509205509 | 48 | 97 | 0.0 | 0.0 | 0.04 | 0.29 | 0.29 | 94 | 1011.6 |
| 20260509205009 | 48 | 97 | 0.0 | 0.0 | 0.03 | 0.28 | 0.28 | 94 | 1011.6 |
| 20260509204526 | 48 | 97 | 0.0 | 0.0 | 0.04 | 0.28 | 0.28 | 94 | 1011.7 |
| 20260509204007 | 48 | 97 | 0.0 | 0.0 | 0.04 | 0.27 | 0.27 | 94 | 1011.8 |
| 20260509203511 | 48 | 97 | 0.0 | 0.0 | 0.05 | 0.27 | 0.27 | 94 | 1011.9 |
| 20260509203029 | 48 | 97 | 0.0 | 0.0 | 0.05 | 0.27 | 0.27 | 94 | 1012.0 |
| 20260509202509 | 48 | 97 | 0.0 | 0.0 | 0.04 | 0.26 | 0.26 | 94 | 1012.1 |
| 20260509202011 | 48 | 97 | 0.0 | 0.0 | 0.04 | 0.26 | 0.26 | 94 | 1012.2 |
| 20260509201526 | 48 | 97 | 0.0 | 0.0 | 0.04 | 0.26 | 0.26 | 94 | 1012.1 |
| 20260509201008 | 48 | 97 | 0.0 | 0.0 | 0.05 | 0.26 | 0.26 | 94 | 1012.1 |
| 20260509200513 | 48 | 97 | 0.0 | 0.0 | 0.05 | 0.26 | 0.26 | 94 | 1012.3 |
| 20260509200028 | 48 | 97 | 0.0 | 0.0 | 0.05 | 0.26 | 0.26 | 93 | 1012.4 |
| 20260509195511 | 47 | 97 | 0.0 | 0.0 | 0.04 | 0.25 | 0.25 | 93 | 1012.5 |
| 20260509195009 | 48 | 97 | 0.0 | 0.0 | 0.04 | 0.25 | 0.25 | 93 | 1012.5 |
| 20260509194543 | 48 | 97 | 0.0 | 0.0 | 0.03 | 0.24 | 0.24 | 94 | 1012.5 |
| 20260509194010 | 47 | 97 | 0.0 | 0.0 | 0.02 | 0.23 | 0.23 | 93 | 1012.5 |
| 20260509193516 | 47 | 97 | 0.0 | 1.0 | 0.01 | 0.22 | 0.22 | 93 | 1012.4 |
| 20260509193028 | 47 | 97 | 0.0 | 2.0 | 0.01 | 0.22 | 0.22 | 93 | 1012.3 |
| 20260509192507 | 48 | 97 | 0.0 | 2.0 | 0.01 | 0.22 | 0.22 | 93 | 1012.3 |
| 20260509192009 | 47 | 100 | 0.0 | 0.0 | 0.01 | 0.22 | 0.22 | 93 | 1012.3 |
| 20260509191521 | 48 | 352 | 0.0 | 0.0 | 0.01 | 0.22 | 0.22 | 94 | 1012.3 |
| 20260509191012 | 47 | 352 | 0.0 | 0.0 | 0.00 | 0.21 | 0.21 | 93 | 1012.4 |
| 20260509190509 | 47 | 352 | 0.0 | 0.0 | 0.00 | 0.21 | 0.21 | 93 | 1012.5 |
| 20260509190024 | 47 | 352 | 0.0 | 0.0 | 0.00 | 0.21 | 0.21 | 93 | 1012.6 |
| 20260509185508 | 47 | 352 | 0.0 | 0.0 | 0.00 | 0.21 | 0.21 | 93 | 1012.5 |
| 20260509185013 | 47 | 352 | 0.0 | 0.0 | 0.00 | 0.21 | 0.21 | 93 | 1012.3 |
| 20260509184509 | 47 | 352 | 0.0 | 0.0 | 0.00 | 0.21 | 0.21 | 93 | 1012.2 |
| 20260509184007 | 47 | 34 | 0.0 | 0.0 | 0.00 | 0.21 | 0.21 | 93 | 1012.3 |
| 20260509183507 | 47 | 43 | 0.0 | 0.0 | 0.01 | 0.21 | 0.21 | 93 | 1012.3 |
| 20260509183014 | 47 | 36 | 0.0 | 0.0 | 0.01 | 0.21 | 0.21 | 93 | 1012.3 |